EJU63AE LFMN-LEPA

Flight info

Callsign EJU63AE
Flight time 1h 28m
Altitude 37000
Route EPOLO DCT SOFFY DCT VATIR N852 VERSO L129 LUNIK
Aircraft A320/M-SDE2E3FGHIJ1RWXYZ/LB1

Departure

Time 2026-05-06 16:32
Airport Nice-Côte d'Azur Airport (LFMN)

Arrival

Time 2026-05-06 18:00
Airport Palma de Mallorca Airport (LEPA)
Time Latitude Longitude Altitude Speed Heading
2026-05-06 15:57 43.66476 7.21493 22 ft 0 kts 315°
2026-05-06 16:19 43.66474 7.21495 21 ft 2 kts 315°
2026-05-06 16:20 43.66456 7.21519 23 ft 2 kts 315°
2026-05-06 16:20 43.66440 7.21540 22 ft 4 kts 332°
2026-05-06 16:20 43.66420 7.21544 21 ft 4 kts 41°
2026-05-06 16:20 43.66408 7.21527 21 ft 0 kts 45°
2026-05-06 16:23 43.66408 7.21528 21 ft 1 kts 45°
2026-05-06 16:23 43.66425 7.21551 23 ft 6 kts 45°
2026-05-06 16:24 43.66468 7.21610 21 ft 11 kts 45°
2026-05-06 16:24 43.66530 7.21695 21 ft 15 kts 45°
2026-05-06 16:24 43.66605 7.21799 21 ft 16 kts 45°
2026-05-06 16:24 43.66638 7.21905 21 ft 10 kts 117°
2026-05-06 16:25 43.66593 7.21979 21 ft 10 kts 115°
2026-05-06 16:25 43.66627 7.22071 21 ft 14 kts 45°
2026-05-06 16:25 43.66690 7.22157 21 ft 15 kts 46°
2026-05-06 16:25 43.66771 7.22269 21 ft 13 kts 45°
2026-05-06 16:26 43.66816 7.22366 21 ft 9 kts 89°
2026-05-06 16:26 43.66804 7.22407 23 ft 7 kts 125°
2026-05-06 16:26 43.66785 7.22436 20 ft 5 kts 132°
2026-05-06 16:26 43.66745 7.22494 20 ft 11 kts 135°
2026-05-06 16:27 43.66684 7.22576 21 ft 13 kts 136°
2026-05-06 16:27 43.66675 7.22587 21 ft 2 kts 136°
2026-05-06 16:27 43.66652 7.22618 21 ft 7 kts 136°
2026-05-06 16:27 43.66641 7.22633 21 ft 1 kts 136°
2026-05-06 16:28 43.66623 7.22658 21 ft 6 kts 136°
2026-05-06 16:28 43.66600 7.22689 21 ft 0 kts 134°
2026-05-06 16:29 43.66596 7.22695 21 ft 4 kts 134°
2026-05-06 16:29 43.66557 7.22747 21 ft 12 kts 141°
2026-05-06 16:30 43.66488 7.22741 24 ft 0 kts 221°
2026-05-06 16:32 43.66397 7.22630 22 ft 50 kts 222°
2026-05-06 16:32 43.66007 7.22080 23 ft 110 kts 224°
2026-05-06 16:32 43.65336 7.21159 116 ft 148 kts 226°
2026-05-06 16:32 43.64646 7.20176 865 ft 138 kts 223°
2026-05-06 16:33 43.63954 7.19230 1443 ft 145 kts 223°
2026-05-06 16:33 43.63179 7.18166 1749 ft 168 kts 225°
2026-05-06 16:33 43.62297 7.16975 2079 ft 189 kts 226°
2026-05-06 16:34 43.60010 7.14571 3258 ft 219 kts 200°
2026-05-06 16:34 43.58471 7.14673 4094 ft 231 kts 160°
2026-05-06 16:34 43.57074 7.15833 4811 ft 240 kts 145°
2026-05-06 16:34 43.55820 7.17405 5555 ft 248 kts 139°
2026-05-06 16:35 43.54737 7.19289 6292 ft 252 kts 118°
2026-05-06 16:35 43.54034 7.21442 7126 ft 248 kts 122°
2026-05-06 16:35 43.52999 7.23393 7793 ft 250 kts 136°
2026-05-06 16:35 43.51812 7.25084 8598 ft 248 kts 141°
2026-05-06 16:36 43.50574 7.26760 9337 ft 252 kts 142°
2026-05-06 16:36 43.49287 7.28450 10088 ft 251 kts 147°
2026-05-06 16:36 43.47776 7.29399 10737 ft 239 kts 179°
2026-05-06 16:36 43.46135 7.29223 11214 ft 243 kts 203°
2026-05-06 16:37 43.44649 7.27992 11459 ft 260 kts 223°
2026-05-06 16:37 43.43232 7.26272 11675 ft 284 kts 223°
2026-05-06 16:37 43.41684 7.24396 11868 ft 308 kts 223°
2026-05-06 16:37 43.40042 7.22424 12371 ft 317 kts 222°
2026-05-06 16:38 43.38361 7.20418 13103 ft 320 kts 223°
2026-05-06 16:38 43.36675 7.18415 13841 ft 323 kts 222°
2026-05-06 16:38 43.34961 7.16378 14471 ft 327 kts 222°
2026-05-06 16:38 43.33227 7.14321 15135 ft 329 kts 222°
2026-05-06 16:39 43.31506 7.12277 15836 ft 329 kts 223°
2026-05-06 16:39 43.29776 7.10224 16560 ft 329 kts 223°
2026-05-06 16:39 43.28043 7.08167 17297 ft 329 kts 223°
2026-05-06 16:39 43.26300 7.06101 18026 ft 329 kts 223°
2026-05-06 16:40 43.24570 7.04052 18648 ft 330 kts 223°
2026-05-06 16:40 43.22830 7.01988 19226 ft 332 kts 223°
2026-05-06 16:40 43.21085 6.99919 19801 ft 333 kts 223°
2026-05-06 16:40 43.19320 6.97831 20366 ft 335 kts 223°
2026-05-06 16:41 43.17566 6.95710 20928 ft 337 kts 226°
2026-05-06 16:41 43.15949 6.93378 21487 ft 339 kts 227°
2026-05-06 16:41 43.14330 6.91026 22050 ft 341 kts 227°
2026-05-06 16:41 43.12699 6.88660 22619 ft 343 kts 227°
2026-05-06 16:42 43.11058 6.86281 23164 ft 345 kts 227°
2026-05-06 16:42 43.09408 6.83888 23674 ft 347 kts 227°
2026-05-06 16:42 43.07746 6.81480 24128 ft 348 kts 227°
2026-05-06 16:42 43.06078 6.79067 24575 ft 350 kts 227°
2026-05-06 16:43 43.04401 6.76650 24991 ft 351 kts 227°
2026-05-06 16:43 43.02717 6.74223 25381 ft 353 kts 227°
2026-05-06 16:43 43.01026 6.71787 25752 ft 355 kts 227°
2026-05-06 16:43 42.99321 6.69332 26138 ft 357 kts 227°
2026-05-06 16:44 42.97643 6.66917 26521 ft 359 kts 226°
2026-05-06 16:44 42.95888 6.64395 26907 ft 360 kts 226°
2026-05-06 16:44 42.94154 6.61904 27282 ft 362 kts 226°
2026-05-06 16:44 42.92415 6.59409 27663 ft 363 kts 226°
2026-05-06 16:45 42.90864 6.56902 28005 ft 365 kts 235°
2026-05-06 16:45 42.90324 6.55710 28161 ft 367 kts 239°
2026-05-06 16:46 42.89919 6.54609 28279 ft 369 kts 244°
2026-05-06 16:46 42.89133 6.51199 28629 ft 376 kts 255°
2026-05-06 16:46 42.88954 6.47605 28966 ft 387 kts 267°
2026-05-06 16:47 42.89292 6.43982 29321 ft 392 kts 271°
2026-05-06 16:47 42.89695 6.40240 29644 ft 394 kts 271°
2026-05-06 16:47 42.90094 6.36536 29950 ft 396 kts 271°
2026-05-06 16:47 42.90489 6.32856 30209 ft 398 kts 271°
2026-05-06 16:48 42.90891 6.29067 30458 ft 399 kts 271°
2026-05-06 16:48 42.91281 6.25365 30691 ft 401 kts 271°
2026-05-06 16:48 42.91675 6.21599 30929 ft 402 kts 271°
2026-05-06 16:48 42.92069 6.17818 31209 ft 402 kts 271°
2026-05-06 16:49 42.92461 6.14054 31546 ft 401 kts 271°
2026-05-06 16:49 42.92851 6.10293 31881 ft 400 kts 271°
2026-05-06 16:49 42.93236 6.06543 32237 ft 399 kts 271°
2026-05-06 16:49 42.93620 6.02801 32556 ft 398 kts 271°
2026-05-06 16:50 42.94005 5.99062 32873 ft 397 kts 271°
2026-05-06 16:50 42.94388 5.95340 33202 ft 396 kts 271°
2026-05-06 16:50 42.94769 5.91617 33517 ft 396 kts 271°
2026-05-06 16:50 42.95027 5.89099 33735 ft 395 kts 271°
2026-05-06 16:51 42.95529 5.84189 34117 ft 394 kts 271°
2026-05-06 16:51 42.95783 5.81682 34288 ft 394 kts 271°
2026-05-06 16:51 42.96277 5.76774 34597 ft 394 kts 271°
2026-05-06 16:51 42.96529 5.74268 34746 ft 394 kts 271°
2026-05-06 16:52 42.96897 5.70608 34987 ft 395 kts 272°
2026-05-06 16:52 42.97272 5.66891 35171 ft 396 kts 272°
2026-05-06 16:52 42.97644 5.63166 35363 ft 396 kts 272°
2026-05-06 16:52 42.98015 5.59441 35560 ft 396 kts 272°
2026-05-06 16:53 42.98385 5.55708 35752 ft 396 kts 272°
2026-05-06 16:53 42.98752 5.51976 35947 ft 397 kts 272°
2026-05-06 16:53 42.99118 5.48247 36127 ft 397 kts 272°
2026-05-06 16:53 42.99485 5.44509 36310 ft 397 kts 272°
2026-05-06 16:54 42.99853 5.40764 36483 ft 397 kts 272°
2026-05-06 16:54 43.00221 5.37019 36652 ft 398 kts 272°
2026-05-06 16:54 43.00584 5.33282 36831 ft 397 kts 272°
2026-05-06 16:55 43.01274 5.25788 36920 ft 395 kts 268°
2026-05-06 16:55 43.01166 5.22081 36921 ft 389 kts 257°
2026-05-06 16:55 43.00489 5.18532 36920 ft 385 kts 246°
2026-05-06 16:56 42.97628 5.12429 36922 ft 385 kts 226°
2026-05-06 16:56 42.93712 5.07411 36924 ft 386 kts 225°
2026-05-06 16:57 42.89781 5.02411 36914 ft 386 kts 225°
2026-05-06 16:57 42.85855 4.97413 36931 ft 386 kts 225°
2026-05-06 16:58 42.81927 4.92423 36945 ft 386 kts 225°
2026-05-06 16:58 42.77990 4.87435 36935 ft 387 kts 225°
2026-05-06 16:59 42.74046 4.82444 36934 ft 387 kts 225°
2026-05-06 16:59 42.70094 4.77462 36940 ft 387 kts 225°
2026-05-06 17:00 42.66142 4.72482 36951 ft 388 kts 225°
2026-05-06 17:00 42.62213 4.67536 36954 ft 388 kts 225°
2026-05-06 17:01 42.58248 4.62566 36951 ft 388 kts 225°
2026-05-06 17:01 42.54286 4.57599 36947 ft 388 kts 225°
2026-05-06 17:02 42.50289 4.52594 36952 ft 388 kts 225°
2026-05-06 17:02 42.46318 4.47631 36959 ft 388 kts 225°
2026-05-06 17:03 42.42372 4.42709 36950 ft 388 kts 225°
2026-05-06 17:03 42.38397 4.37772 36963 ft 388 kts 225°
2026-05-06 17:04 42.34425 4.32836 36957 ft 388 kts 225°
2026-05-06 17:04 42.29909 4.28791 36947 ft 393 kts 208°
2026-05-06 17:05 42.24917 4.25903 36956 ft 393 kts 205°
2026-05-06 17:05 42.19760 4.23401 36958 ft 394 kts 204°
2026-05-06 17:06 42.14573 4.21005 36950 ft 394 kts 204°
2026-05-06 17:06 42.09413 4.18533 36944 ft 393 kts 205°
2026-05-06 17:07 42.04282 4.15989 36941 ft 393 kts 205°
2026-05-06 17:07 41.99145 4.13439 36951 ft 393 kts 205°
2026-05-06 17:08 41.94001 4.10914 36949 ft 394 kts 205°
2026-05-06 17:08 41.88853 4.08404 36928 ft 394 kts 205°
2026-05-06 17:09 41.83715 4.05895 36938 ft 393 kts 205°
2026-05-06 17:09 41.78572 4.03383 36945 ft 393 kts 205°
2026-05-06 17:10 41.73430 4.00888 36946 ft 393 kts 205°
2026-05-06 17:10 41.68291 3.98392 36938 ft 393 kts 205°
2026-05-06 17:11 41.63148 3.95897 36948 ft 393 kts 205°
2026-05-06 17:11 41.58004 3.93407 36951 ft 393 kts 205°
2026-05-06 17:12 41.52863 3.90917 36951 ft 393 kts 205°
2026-05-06 17:12 41.47721 3.88437 36918 ft 393 kts 205°
2026-05-06 17:13 41.42576 3.85957 36944 ft 393 kts 205°
2026-05-06 17:13 41.37436 3.83484 36956 ft 393 kts 205°
2026-05-06 17:14 41.32297 3.81025 36963 ft 392 kts 205°
2026-05-06 17:14 41.27152 3.78559 36927 ft 394 kts 205°
2026-05-06 17:15 41.21997 3.76084 36931 ft 394 kts 205°
2026-05-06 17:15 41.16829 3.73616 36931 ft 395 kts 205°
2026-05-06 17:16 41.11661 3.71158 36933 ft 395 kts 205°
2026-05-06 17:16 41.06481 3.68696 36916 ft 396 kts 205°
2026-05-06 17:17 41.01304 3.66234 36931 ft 395 kts 205°
2026-05-06 17:17 40.96126 3.63777 36942 ft 395 kts 205°
2026-05-06 17:18 40.90950 3.61328 36952 ft 395 kts 205°
2026-05-06 17:18 40.85780 3.58885 36953 ft 395 kts 205°
2026-05-06 17:19 40.80607 3.56445 36936 ft 394 kts 205°
2026-05-06 17:19 40.75438 3.54000 36948 ft 394 kts 205°
2026-05-06 17:20 40.70268 3.51568 36647 ft 394 kts 205°
2026-05-06 17:20 40.67694 3.50360 36392 ft 393 kts 205°
2026-05-06 17:20 40.65119 3.49155 36112 ft 390 kts 205°
2026-05-06 17:20 40.62584 3.47970 35646 ft 386 kts 206°
2026-05-06 17:21 40.60068 3.46793 35196 ft 381 kts 206°
2026-05-06 17:21 40.57589 3.45633 34750 ft 376 kts 206°
2026-05-06 17:21 40.55140 3.44483 34300 ft 372 kts 206°
2026-05-06 17:21 40.52710 3.43345 33836 ft 368 kts 206°
2026-05-06 17:22 40.50306 3.42219 33373 ft 364 kts 207°
2026-05-06 17:22 40.47941 3.41111 32935 ft 359 kts 207°
2026-05-06 17:22 40.45594 3.40048 32484 ft 357 kts 203°
2026-05-06 17:22 40.43129 3.39437 31982 ft 364 kts 193°
2026-05-06 17:23 40.40575 3.39428 31467 ft 369 kts 186°
2026-05-06 17:23 40.38019 3.39579 30995 ft 367 kts 186°
2026-05-06 17:23 40.35476 3.39728 30509 ft 365 kts 186°
2026-05-06 17:23 40.32942 3.39877 30041 ft 364 kts 186°
2026-05-06 17:24 40.30416 3.40023 29517 ft 362 kts 185°
2026-05-06 17:24 40.27916 3.40171 29067 ft 358 kts 185°
2026-05-06 17:24 40.25434 3.40318 28616 ft 355 kts 185°
2026-05-06 17:24 40.22979 3.40457 28173 ft 352 kts 185°
2026-05-06 17:25 40.20540 3.40590 27743 ft 349 kts 185°
2026-05-06 17:25 40.18127 3.40725 27305 ft 345 kts 185°
2026-05-06 17:25 40.15735 3.40858 26880 ft 342 kts 185°
2026-05-06 17:25 40.13365 3.40988 26441 ft 340 kts 185°
2026-05-06 17:26 40.11008 3.41118 25999 ft 338 kts 185°
2026-05-06 17:26 40.08666 3.41246 25556 ft 336 kts 185°
2026-05-06 17:26 40.06331 3.41375 25098 ft 335 kts 184°
2026-05-06 17:26 40.03998 3.41508 24644 ft 335 kts 184°
2026-05-06 17:27 40.01674 3.41641 24178 ft 334 kts 184°
2026-05-06 17:27 39.99354 3.41771 23703 ft 334 kts 184°
2026-05-06 17:27 39.97026 3.41899 23173 ft 334 kts 184°
2026-05-06 17:27 39.94707 3.42031 22711 ft 332 kts 184°
2026-05-06 17:28 39.92404 3.42164 22255 ft 331 kts 184°
2026-05-06 17:28 39.90112 3.42294 21804 ft 329 kts 183°
2026-05-06 17:28 39.87830 3.42424 21358 ft 328 kts 183°
2026-05-06 17:28 39.85551 3.42553 20916 ft 327 kts 183°
2026-05-06 17:29 39.83283 3.42682 20473 ft 326 kts 183°
2026-05-06 17:29 39.81017 3.42812 20042 ft 326 kts 183°
2026-05-06 17:29 39.78752 3.42943 19605 ft 325 kts 183°
2026-05-06 17:29 39.76495 3.43072 19209 ft 324 kts 183°
2026-05-06 17:30 39.74236 3.43181 18740 ft 324 kts 185°
2026-05-06 17:30 39.72046 3.42753 18345 ft 315 kts 202°
2026-05-06 17:30 39.70098 3.41539 17914 ft 309 kts 218°
2026-05-06 17:30 39.68534 3.39687 17508 ft 303 kts 233°
2026-05-06 17:31 39.67440 3.37383 17128 ft 299 kts 244°
2026-05-06 17:31 39.66517 3.34971 16746 ft 297 kts 244°
2026-05-06 17:31 39.65595 3.32581 16372 ft 296 kts 244°
2026-05-06 17:31 39.64673 3.30199 16003 ft 294 kts 244°
2026-05-06 17:32 39.63767 3.27860 15639 ft 294 kts 244°
2026-05-06 17:32 39.62840 3.25463 15237 ft 294 kts 244°
2026-05-06 17:32 39.61938 3.23127 14859 ft 294 kts 244°
2026-05-06 17:32 39.61012 3.20729 14479 ft 293 kts 244°
2026-05-06 17:33 39.60110 3.18394 14113 ft 293 kts 244°
2026-05-06 17:33 39.59199 3.16037 13789 ft 291 kts 244°
2026-05-06 17:33 39.58276 3.13654 13394 ft 290 kts 244°
2026-05-06 17:33 39.57379 3.11344 12980 ft 290 kts 244°
2026-05-06 17:34 39.56472 3.09014 12589 ft 290 kts 244°
2026-05-06 17:34 39.55567 3.06688 12194 ft 289 kts 244°
2026-05-06 17:34 39.54664 3.04371 11814 ft 288 kts 244°
2026-05-06 17:34 39.53766 3.02068 11422 ft 287 kts 244°
2026-05-06 17:35 39.52866 2.99759 11044 ft 286 kts 244°
2026-05-06 17:35 39.52261 2.98206 10785 ft 286 kts 244°
2026-05-06 17:35 39.51077 2.95170 10273 ft 286 kts 243°
2026-05-06 17:36 39.49574 2.91404 9751 ft 281 kts 243°
2026-05-06 17:36 39.48665 2.89136 9354 ft 280 kts 243°
2026-05-06 17:36 39.47771 2.86902 8981 ft 279 kts 243°
2026-05-06 17:36 39.46883 2.84677 8521 ft 282 kts 243°
2026-05-06 17:37 39.45979 2.82403 7997 ft 285 kts 243°
2026-05-06 17:37 39.45091 2.80156 7529 ft 277 kts 243°
2026-05-06 17:37 39.44222 2.77947 7137 ft 274 kts 243°
2026-05-06 17:37 39.43364 2.75751 6773 ft 273 kts 243°
2026-05-06 17:38 39.42512 2.73557 6406 ft 273 kts 243°
2026-05-06 17:38 39.41662 2.71355 5944 ft 273 kts 243°
2026-05-06 17:38 39.40822 2.69163 5481 ft 272 kts 243°
2026-05-06 17:38 39.39988 2.66976 5037 ft 271 kts 243°
2026-05-06 17:39 39.39334 2.64717 4577 ft 269 kts 262°
2026-05-06 17:39 39.39285 2.62303 4057 ft 270 kts 271°
2026-05-06 17:39 39.39369 2.59885 3449 ft 267 kts 272°
2026-05-06 17:39 39.39462 2.57505 2845 ft 263 kts 272°
2026-05-06 17:40 39.39550 2.55164 2248 ft 259 kts 272°
2026-05-06 17:40 39.39636 2.52920 2029 ft 239 kts 272°
2026-05-06 17:40 39.39762 2.50888 1994 ft 216 kts 285°
2026-05-06 17:40 39.40537 2.49285 2208 ft 213 kts 326°
2026-05-06 17:41 39.41904 2.48629 2795 ft 222 kts 355°
2026-05-06 17:41 39.43485 2.48857 2566 ft 234 kts 25°
2026-05-06 17:41 39.44708 2.50061 2356 ft 213 kts 54°
2026-05-06 17:41 39.45478 2.51611 2106 ft 201 kts 60°
2026-05-06 17:42 39.46207 2.53155 2015 ft 202 kts 60°
2026-05-06 17:42 39.46942 2.54701 2047 ft 202 kts 60°
2026-05-06 17:42 39.47677 2.56247 2007 ft 201 kts 60°
2026-05-06 17:42 39.48403 2.57772 1997 ft 191 kts 60°
2026-05-06 17:43 39.49087 2.59211 1996 ft 185 kts 60°
2026-05-06 17:43 39.49746 2.60597 1847 ft 172 kts 60°
2026-05-06 17:43 39.50333 2.61829 1680 ft 151 kts 60°
2026-05-06 17:43 39.50861 2.62942 1481 ft 141 kts 60°
2026-05-06 17:44 39.51369 2.64012 1300 ft 139 kts 62°
2026-05-06 17:44 39.51869 2.65068 1111 ft 138 kts 60°
2026-05-06 17:44 39.52372 2.66127 933 ft 138 kts 59°
2026-05-06 17:44 39.52871 2.67184 754 ft 138 kts 58°
2026-05-06 17:45 39.53374 2.68240 565 ft 139 kts 56°
2026-05-06 17:45 39.53864 2.69278 394 ft 137 kts 57°
2026-05-06 17:45 39.54365 2.70338 207 ft 135 kts 58°
2026-05-06 17:45 39.54853 2.71376 31 ft 133 kts 59°
2026-05-06 17:46 39.55343 2.72421 438 ft 139 kts 58°
2026-05-06 17:46 39.55831 2.73568 1163 ft 151 kts 63°
2026-05-06 17:46 39.56309 2.74820 1759 ft 162 kts 66°
2026-05-06 17:46 39.56806 2.76222 2126 ft 180 kts 67°
2026-05-06 17:47 39.57386 2.77747 2542 ft 201 kts 53°
2026-05-06 17:47 39.58593 2.78732 2929 ft 224 kts 12°
2026-05-06 17:47 39.60138 2.78467 3000 ft 227 kts 329°
2026-05-06 17:47 39.61231 2.77059 3007 ft 226 kts 301°
2026-05-06 17:48 39.62168 2.75428 2999 ft 227 kts 321°
2026-05-06 17:48 39.63608 2.74598 3007 ft 226 kts 356°
2026-05-06 17:48 39.65119 2.74891 3012 ft 224 kts 22°
2026-05-06 17:48 39.66396 2.75978 3005 ft 221 kts 53°
2026-05-06 17:49 39.66979 2.77771 3006 ft 218 kts 88°
2026-05-06 17:49 39.66670 2.79656 3007 ft 216 kts 122°
2026-05-06 17:49 39.65580 2.80966 3007 ft 217 kts 156°
2026-05-06 17:49 39.64105 2.81316 3011 ft 218 kts 179°
2026-05-06 17:50 39.62567 2.81277 3008 ft 219 kts 181°
2026-05-06 17:50 39.61061 2.81181 3009 ft 219 kts 182°
2026-05-06 17:50 39.59540 2.81077 3010 ft 219 kts 182°
2026-05-06 17:50 39.58020 2.80969 3007 ft 219 kts 182°
2026-05-06 17:51 39.56495 2.80861 3008 ft 219 kts 182°
2026-05-06 17:51 39.54981 2.80752 3008 ft 219 kts 182°
2026-05-06 17:51 39.53451 2.80634 3009 ft 221 kts 182°
2026-05-06 17:51 39.51917 2.80496 3007 ft 221 kts 182°
2026-05-06 17:52 39.50382 2.80324 3004 ft 222 kts 190°
2026-05-06 17:52 39.49016 2.79422 3005 ft 224 kts 223°
2026-05-06 17:52 39.47990 2.77906 3010 ft 226 kts 231°
2026-05-06 17:52 39.47022 2.76261 3008 ft 226 kts 232°
2026-05-06 17:53 39.46096 2.74654 3008 ft 226 kts 232°
2026-05-06 17:53 39.45163 2.73021 3007 ft 226 kts 232°
2026-05-06 17:53 39.44230 2.71385 3007 ft 226 kts 232°
2026-05-06 17:53 39.43296 2.69744 3009 ft 227 kts 232°
2026-05-06 17:54 39.42447 2.68031 3002 ft 227 kts 248°
2026-05-06 17:54 39.42003 2.66067 3009 ft 229 kts 256°
2026-05-06 17:54 39.41661 2.64060 3006 ft 228 kts 257°
2026-05-06 17:54 39.41331 2.62052 3007 ft 228 kts 257°
2026-05-06 17:55 39.41006 2.60046 3007 ft 228 kts 257°
2026-05-06 17:55 39.40684 2.58042 2903 ft 227 kts 257°
2026-05-06 17:55 39.40378 2.56039 2582 ft 227 kts 263°
2026-05-06 17:55 39.40607 2.54056 2252 ft 225 kts 297°
2026-05-06 17:56 39.41618 2.52566 2102 ft 223 kts 328°
2026-05-06 17:56 39.43038 2.51815 2105 ft 221 kts 354°
2026-05-06 17:56 39.44537 2.51916 2098 ft 207 kts 19°
2026-05-06 17:56 39.45746 2.52714 2101 ft 190 kts 41°
2026-05-06 17:57 39.46592 2.53968 2139 ft 183 kts 61°
2026-05-06 17:57 39.47257 2.55372 2123 ft 182 kts 60°
2026-05-06 17:57 39.47921 2.56764 2105 ft 182 kts 60°
2026-05-06 17:57 39.48584 2.58155 2102 ft 182 kts 60°
2026-05-06 17:58 39.49247 2.59549 2015 ft 182 kts 60°
2026-05-06 17:58 39.49906 2.60937 1818 ft 178 kts 60°
2026-05-06 17:58 39.50572 2.62340 1605 ft 193 kts 60°
2026-05-06 17:58 39.51273 2.63816 1333 ft 190 kts 61°
2026-05-06 17:59 39.51948 2.65235 1082 ft 177 kts 60°
2026-05-06 17:59 39.52554 2.66511 871 ft 156 kts 59°
2026-05-06 17:59 39.53098 2.67659 664 ft 144 kts 57°
2026-05-06 17:59 39.53612 2.68744 476 ft 139 kts 57°
2026-05-06 18:00 39.54109 2.69794 279 ft 137 kts 57°
2026-05-06 18:00 39.54593 2.70829 102 ft 135 kts 58°
2026-05-06 18:00 39.55069 2.71826 28 ft 110 kts 57°
2026-05-06 18:00 39.55325 2.72351 25 ft 43 kts 59°
2026-05-06 18:01 39.55471 2.72671 24 ft 39 kts 61°
2026-05-06 18:01 39.55497 2.72974 27 ft 28 kts 91°
2026-05-06 18:01 39.55497 2.73004 26 ft 0 kts 90°
2026-05-06 18:04 39.55497 2.73015 26 ft 5 kts 90°
2026-05-06 18:04 39.55497 2.73036 26 ft 0 kts 90°
2026-05-06 18:05 39.55497 2.73052 26 ft 6 kts 90°
2026-05-06 18:05 39.55496 2.73117 26 ft 5 kts 90°
2026-05-06 18:05 39.55514 2.73200 27 ft 14 kts 62°
2026-05-06 18:05 39.55567 2.73315 26 ft 14 kts 57°
2026-05-06 18:06 39.55626 2.73443 26 ft 18 kts 60°
2026-05-06 18:06 39.55584 2.73528 28 ft 10 kts 147°
2026-05-06 18:06 39.55531 2.73571 30 ft 11 kts 151°
2026-05-06 18:06 39.55461 2.73624 33 ft 13 kts 149°
2026-05-06 18:07 39.55386 2.73683 36 ft 15 kts 149°
2026-05-06 18:07 39.55281 2.73762 34 ft 19 kts 149°
2026-05-06 18:07 39.55180 2.73842 36 ft 17 kts 147°
2026-05-06 18:07 39.55074 2.73931 35 ft 17 kts 147°
2026-05-06 18:08 39.54972 2.74012 36 ft 19 kts 149°
2026-05-06 18:08 39.54893 2.74073 36 ft 15 kts 149°
2026-05-06 18:08 39.54776 2.74106 34 ft 22 kts 222°
2026-05-06 18:08 39.54709 2.73964 36 ft 18 kts 239°
2026-05-06 18:09 39.54641 2.73815 35 ft 20 kts 242°
2026-05-06 18:09 39.54592 2.73704 34 ft 14 kts 242°
2026-05-06 18:09 39.54601 2.73636 36 ft 3 kts 318°
2026-05-06 18:09 39.54654 2.73616 36 ft 10 kts 347°
2026-05-06 18:10 39.54694 2.73590 34 ft 0 kts 328°
2026-05-06 18:10 39.54696 2.73589 35 ft 2 kts 328°
2026-05-06 18:11 39.54722 2.73585 36 ft 4 kts 29°
2026-05-06 18:11 39.54731 2.73597 36 ft 5 kts 49°
2026-05-06 18:11 39.54759 2.73650 36 ft 0 kts 56°
2026-05-06 18:11 39.54760 2.73652 36 ft 0 kts 57°